Location: Huberhof
(49.2050°N, 7.4980°E)
Time: 05:23:03
(UTC+00:00)

Cosmos 1980 Rocket - Pass Details

Date: 29 October 2020
Orbit: 831 x 848 km, 71.0° (Epoch: 25 November)

Event Time Altitude Azimuth Distance (km) Brightness Sun altitude
Rises 17:30:55 0° 167° (SSE) 3,377 5.3 -13.2°
Reaches altitude 10° 17:33:46 10° 153° (SSE) 2,445 4.4 -13.6°
Maximum altitude 17:38:08 24° 102° (ESE) 1,681 3.2 -14.3°
Enters shadow 17:39:31 21° 81° (E) 1,775 3.2 -14.6°
